FW3867 Weather Reports


Display with metric or nautical units.
time (UTC)temp
F
wind
direction
speed
MPH
gust
MPH
rain 1hr
in
rain 24hr
in
rain mn
in
humidity
%
barometer
mb
20260504044537 49 281 13.0 20.0 0.00 0.00 0.00 55 1011.9
20260504043033 49 250 10.0 17.0 0.00 0.00 0.00 55 1012.0
20260504041525 48 246 11.0 16.0 0.00 0.00 0.00 55 1012.1
20260504040025 49 360 7.0 13.0 0.00 0.00 0.00 54 1012.2
20260504034533 50 360 9.0 12.0 0.00 0.00 0.00 52 1012.2
20260504033103 50 360 7.0 11.0 0.00 0.00 0.00 51 1012.2
20260504031554 51 360 8.0 11.0 0.00 0.00 0.00 49 1012.4
20260504030051 51 360 6.0 11.0 0.00 0.00 0.00 49 1012.6
20260504024551 51 360 6.0 10.0 0.00 0.00 0.00 48 1012.8
20260504023050 51 360 7.0 11.0 0.00 0.00 0.00 47 1012.7
20260504021550 52 360 6.0 11.0 0.00 0.00 0.00 46 1012.6
20260504020048 52 270 3.0 11.0 0.00 0.00 0.00 46 1012.8
20260504014549 52 360 5.0 11.0 0.00 0.00 0.00 45 1012.9
20260504013050 52 360 3.0 6.0 0.00 0.00 0.00 45 1012.8
20260504011548 52 360 7.0 14.0 0.00 0.00 0.00 44 1012.7
20260504010015 53 360 5.0 15.0 0.00 0.00 0.00 44 1012.6
20260504004515 53 313 10.0 24.0 0.00 0.00 0.00 43 1012.6
20260504003011 52 284 17.0 30.0 0.00 0.00 0.00 45 1012.4
20260504001511 53 308 8.0 14.0 0.00 0.00 0.00 45 1012.3
20260504000010 53 267 4.0 8.0 0.00 0.00 0.00 47 1012.2
20260503234510 53 301 4.0 17.0 0.00 0.00 0.00 47 1012.1
20260503233007 53 344 7.0 20.0 0.00 0.00 0.00 47 1012.3
20260503231506 53 327 14.0 21.0 0.00 0.00 0.00 46 1012.3
20260503230006 53 312 11.0 29.0 0.00 0.00 0.00 45 1012.3
20260503224505 54 276 14.0 22.0 0.00 0.00 0.00 44 1011.9
20260503223100 54 287 7.0 16.0 0.00 0.00 0.00 45 1011.8
20260503221557 53 277 9.0 20.0 0.00 0.00 0.00 46 1011.9
20260503220110 53 269 11.0 22.0 0.00 0.00 0.00 46 1012.2
20260503214557 53 314 17.0 31.0 0.00 0.00 0.00 45 1012.2
20260503213054 53 271 13.0 23.0 0.00 0.00 0.00 45 1012.0
20260503211606 53 294 14.0 19.0 0.00 0.00 0.00 45 1012.0
20260503210055 53 332 12.0 22.0 0.00 0.00 0.00 45 1012.0
20260503204553 52 316 11.0 19.0 0.00 0.00 0.00 46 1012.2
20260503203017 52 305 13.0 23.0 0.00 0.00 0.00 46 1012.4
20260503201525 52 315 8.0 21.0 0.00 0.00 0.00 47 1012.6
20260503200011 51 283 12.0 17.0 0.00 0.00 0.00 47 1012.8
20260503194507 51 334 8.0 27.0 0.00 0.00 0.00 48 1013.1
20260503193004 51 315 13.0 21.0 0.00 0.00 0.00 48 1013.3
20260503191503 50 333 13.0 22.0 0.00 0.00 0.00 48 1013.4
20260503190101 50 313 13.0 21.0 0.00 0.00 0.00 48 1013.6
20260503184559 50 320 12.0 23.0 0.00 0.00 0.00 47 1013.6
20260503183104 50 338 10.0 20.0 0.00 0.00 0.00 47 1013.5
20260503181621 50 314 14.0 20.0 0.00 0.00 0.00 47 1013.6
20260503180100 50 326 13.0 27.0 0.00 0.00 0.00 47 1013.7
20260503174555 49 338 15.0 23.0 0.00 0.00 0.00 45 1013.8
20260503173054 48 328 10.0 18.0 0.00 0.00 0.00 44 1013.9
20260503171543 49 284 9.0 20.0 0.00 0.00 0.00 45 1014.0
20260503150118 44 355 13.0 19.0 0.00 0.00 0.00 54 1015.5
20260503081516 35 311 2.0 8.0 0.00 0.00 0.00 81 1015.0
20260503071506 35 281 6.0 10.0 0.00 0.00 0.00 81 1015.0
20260503054525 35 317 9.0 13.0 0.00 0.00 0.00 79 1015.3
20260503053033 35 290 7.0 13.0 0.00 0.00 0.00 78 1015.4
20260503051517 36 327 5.0 9.0 0.00 0.00 0.00 77 1015.5
20260503050014 36 324 5.0 8.0 0.00 0.00 0.00 77 1015.6